"America/Chicago Time","Lifetime Energy (kWh)","Power (W)","AC Volts RMS (V) ","AC Amps RMS (mA)","Grid Frequency (Hz)","Inverter Temperature (C)"
"04/09/12 12:31:34","46.5193","44.2","214.65","143","60.0","12"
"04/09/12 12:36:33","46.5238","44.5","213.76","411","60.03","11"
"04/09/12 12:41:33","46.5279","55.0","214.85","241","60.0","11"
"04/09/12 12:46:34","46.5319","69.3","215.33","145","60.0","11"
"04/09/12 12:51:35","46.5368","74.0","215.07","328","60.0","10"
"04/09/12 12:56:34","46.5404","42.0","215.53","387","60.03","10"
"04/09/12 13:01:33","46.545","64.4","215.53","327","60.0","9"
"04/09/12 13:06:34","46.5499","63.5","214.93","325","60.03","9"
"04/09/12 13:11:34","46.5541","45.6","214.3","381","60.0","9"
"04/09/12 13:21:33","46.5631","71.5","214.51","359","60.03","9"
"04/09/12 13:26:33","46.5682","42.5","214.01","292","60.03","9"
"04/09/12 13:31:33","46.5713","45.5","215.06","111","60.03","9"
"04/09/12 13:36:34","46.5749","62.0","214.92","369","60.0","9"
"04/09/12 13:41:34","46.5787","42.0","214.91","307","60.0","9"
"04/09/12 13:46:35","46.5816","60.8","214.0","160","60.03","8"
"04/09/12 13:51:33","46.5851","26.5","214.18","78","60.03","8"
"04/09/12 13:56:33","46.5875","31.3","214.83","222","60.03","8"
"04/09/12 14:01:33","46.5889","14.5","214.73","7","60.0","8"
"04/09/12 14:06:34","46.5904","13.3","214.43","136","60.03","8"
"04/09/12 14:11:34","46.5916","14.4","214.36","55","60.03","7"
"04/09/12 14:16:33","46.5924","11.6","214.45","153","60.03","7"
"04/09/12 14:21:34","46.5934","14.4","214.6","19","60.0","7"
"04/09/12 14:26:34","46.5941","13.5","214.87","87","60.0","7"
"04/09/12 14:31:35","46.5948","12.3","214.72","232","60.03","6"
"04/09/12 14:36:33","46.5969","38.9","214.95","72","60.03","6"
"04/09/12 14:41:34","46.5992","33.5","214.99","218","60.03","6"
"04/09/12 14:46:34","46.6017","42.6","214.16","209","60.03","6"
"04/09/12 14:51:33","46.6049","62.4","215.03","321","60.0","7"
"04/09/12 14:56:34","46.6117","108.8","215.77","521","60.03","7"
"04/09/12 15:01:34","46.619","71.4","215.73","357","60.03","8"
"04/09/12 15:06:34","46.6256","80.1","215.98","398","60.03","8"
"04/09/12 15:11:34","46.6317","55.2","215.74","402","60.03","8"
"04/09/12 15:21:34","46.6445","181.0","216.81","822","60.03","9"
"04/09/12 15:26:34","46.6506","39.2","214.51","152","59.96","9"
"04/09/12 15:31:35","46.6542","77.9","215.58","390","60.03","8"
"04/09/12 15:36:33","46.6604","62.4","215.44","320","60.03","8"
"04/09/12 15:41:33","46.6644","42.5","214.43","320","60.0","8"
"04/09/12 15:46:33","46.6669","38.0","215.16","152","60.03","7"
"04/09/12 15:51:33","46.6693","38.2","214.63","154","60.03","7"
"04/09/12 15:56:33","46.6719","31.1","214.68","117","60.0","7"
"04/09/12 16:01:34","46.6736","28.1","214.28","31","60.0","7"
"04/09/12 16:06:34","46.6757","30.6","214.92","263","60.03","6"
"04/09/12 16:11:34","46.6786","56.9","215.08","406","60.0","6"
"04/09/12 16:16:33","46.6815","21.5","214.6","257","60.03","6"
"04/09/12 16:21:34","46.6823","10.7","214.24","4","60.03","6"
"04/09/12 16:26:33","46.6844","45.8","214.1","333","60.03","6"
"04/09/12 16:31:34","46.6875","41.8","214.55","314","60.0","6"
"04/09/12 16:36:34","46.69","28.5","214.19","206","60.03","6"
"04/09/12 16:41:34","46.6926","35.5","214.22","237","60.0","6"
"04/09/12 16:46:33","46.695","20.4","213.95","319","60.03","6"
"04/09/12 16:51:34","46.6971","18.0","214.28","46","60.03","6"
"04/09/12 16:56:34","46.6994","30.7","214.67","186","60.03","6"
"04/09/12 17:01:35","46.7026","44.8","215.04","272","60.07","6"
"04/09/12 17:06:33","46.7062","34.5","214.65","114","60.03","6"
"04/09/12 17:11:33","46.7089","26.6","214.33","105","60.0","6"
"04/09/12 17:16:34","46.7114","29.6","214.48","140","60.03","6"
"04/09/12 17:21:34","46.7138","25.9","214.53","232","60.03","6"
"04/09/12 17:26:33","46.7158","14.6","214.33","22","60.0","7"
"04/09/12 17:31:34","46.7177","16.8","214.52","131","60.03","7"
"04/09/12 17:36:34","46.7194","19.7","213.83","46","60.03","7"
"04/09/12 17:41:34","46.7209","13.7","213.78","125","60.0","6"
"04/09/12 17:46:34","46.7222","14.2","213.19","76","60.03","6"
"04/09/12 17:51:33","46.7233","13.1","213.46","106","60.03","6"
"04/09/12 17:56:33","46.7242","15.6","213.01","4","60.03","6"
"04/09/12 18:01:33","46.7248","5.6","214.01","188","60.03","6"
"04/09/12 18:06:33","46.7254","10.4","213.76","0","60.07","6"
"04/09/12 18:11:33","46.7263","11.1","213.34","13","60.03","6"
"04/09/12 18:16:35","46.7269","11.5","213.73","126","60.0","6"
"04/09/12 18:21:34","46.7272","13.8","213.75","57","60.0","6"
"04/09/12 18:26:33","46.7276","0.0","213.33","0","60.03","6"
"04/10/12 06:46:37","46.7277","0.0","213.67","0","60.0","1"
"04/10/12 07:11:33","46.7313","18.6","213.65","198","60.0","3"
"04/10/12 07:16:35","46.7329","16.3","212.97","247","60.03","4"
"04/10/12 07:21:34","46.7348","22.8","213.17","317","60.03","4"
"04/10/12 07:26:33","46.7371","35.6","214.98","91","60.03","4"
"04/10/12 07:31:34","46.7398","32.7","212.89","307","60.0","4"
"04/10/12 07:36:34","46.7428","35.3","213.16","307","60.03","5"
"04/10/12 07:41:35","46.7462","39.2","213.15","112","60.03","5"
"04/10/12 07:46:33","46.75","55.6","213.96","389","60.03","5"
"04/10/12 07:51:34","46.7541","70.1","214.59","272","60.0","5"
"04/10/12 07:56:34","46.7587","48.5","214.64","439","60.03","6"
"04/10/12 08:01:34","46.7636","65.8","214.43","337","60.03","6"
"04/10/12 08:06:35","46.7689","70.5","214.19","358","60.03","6"
"04/10/12 08:11:34","46.7746","76.6","214.16","381","60.03","6"
"04/10/12 08:16:35","46.7807","81.5","213.91","404","60.03","6"
"04/10/12 08:21:35","46.7873","86.1","214.49","426","60.03","6"
"04/10/12 08:26:33","46.7942","91.3","214.6","445","60.0","6"
"04/10/12 08:31:34","46.8014","95.3","215.04","462","60.03","7"
"04/10/12 08:36:35","46.809","99.9","214.82","481","60.0","7"
"04/10/12 08:41:34","46.8169","104.5","214.84","503","60.0","7"
"04/10/12 08:46:34","46.8252","103.2","214.59","495","60.03","8"
"04/10/12 08:51:34","46.8334","113.5","214.94","540","60.0","8"
"04/10/12 08:56:34","46.8424","116.5","214.89","557","60.03","8"
"04/10/12 09:01:35","46.8515","120.0","215.71","565","60.0","9"
"04/10/12 09:06:33","46.8608","122.3","215.56","580","60.03","9"
"04/10/12 09:11:34","46.8696","116.8","215.11","554","60.03","9"
"04/10/12 09:16:35","46.8787","116.9","215.41","552","60.07","9"
"04/10/12 09:21:35","46.8881","126.2","216.06","591","60.03","9"
"04/10/12 09:26:35","46.8985","139.8","216.38","647","60.03","9"
"04/10/12 09:31:34","46.9096","145.1","216.78","675","60.03","9"
"04/10/12 09:36:34","46.9209","149.2","217.0","693","60.03","10"
"04/10/12 09:41:34","46.9294","64.2","214.53","286","60.0","9"
"04/10/12 09:46:34","46.9332","41.7","213.81","399","60.0","9"
"04/10/12 09:51:34","46.9372","51.0","214.56","357","60.03","9"
"04/10/12 09:56:35","46.9416","54.4","214.04","89","60.03","8"
"04/10/12 10:01:33","46.9459","48.3","213.83","212","60.0","8"
"04/10/12 10:06:35","46.9504","68.2","213.44","343","60.0","8"
"04/10/12 10:11:33","46.9546","64.0","214.8","342","60.0","8"
"04/10/12 10:16:34","46.9594","65.2","213.77","331","60.0","7"
"04/10/12 10:21:34","46.9643","64.8","213.87","332","60.0","7"
"04/10/12 10:26:34","46.9697","75.6","214.5","374","60.03","7"
"04/10/12 10:31:34","46.9757","79.4","214.95","390","60.0","7"
"04/10/12 10:36:33","46.9814","70.4","214.44","353","60.03","8"
"04/10/12 10:41:34","46.9868","71.5","214.37","362","60.0","8"
"04/10/12 10:46:34","46.9924","73.6","214.3","366","60.03","8"
"04/10/12 10:51:34","46.9982","73.7","214.65","366","60.03","8"
"04/10/12 10:56:35","47.0039","65.4","214.63","335","60.03","8"
"04/10/12 11:01:35","47.0088","65.1","215.33","331","60.0","8"
"04/10/12 11:06:34","47.0138","48.2","215.3","384","60.0","8"
"04/10/12 11:11:34","47.0181","48.0","214.94","151","60.03","7"
"04/10/12 11:16:35","47.0218","47.9","213.83","353","60.03","7"
"04/10/12 11:21:34","47.025","38.7","214.26","308","60.03","7"
"04/10/12 11:26:35","47.0289","67.0","215.19","396","60.03","7"
"04/10/12 11:31:35","47.0334","64.6","214.04","408","60.03","7"
"04/10/12 11:36:34","47.0386","74.7","214.09","373","60.03","7"
"04/10/12 11:41:35","47.0465","123.0","215.21","586","60.03","8"
"04/10/12 11:46:34","47.0569","156.2","216.01","723","60.03","9"
"04/10/12 11:51:34","47.0712","185.9","216.46","850","60.03","10"
"04/10/12 11:56:35","47.0854","180.7","216.55","828","60.03","11"
"04/10/12 12:01:34","47.0988","190.4","216.3","875","60.0","11"
"04/10/12 12:06:35","47.1135","196.7","216.51","896","60.0","12"
"04/10/12 12:11:35","47.1273","156.9","215.76","730","60.03","13"
"04/10/12 12:16:34","47.142","199.2","217.03","901","60.03","13"
"04/10/12 12:21:34","47.152","92.2","214.42","450","60.03","12"
"04/10/12 12:26:34","47.1625","123.5","214.66","588","60.03","13"
"04/10/12 12:31:34","47.1692","62.2","213.28","320","60.03","11"
"04/10/12 12:36:34","47.1741","66.6","214.37","337","60.03","10"
"04/10/12 12:41:35","47.1791","47.1","214.17","326","60.03","9"
"04/10/12 12:46:34","47.1823","44.3","213.47","245","60.03","9"
"04/10/12 12:51:33","47.1857","56.7","213.24","194","60.0","9"
"04/10/12 12:56:34","47.1895","44.6","213.85","220","60.03","8"
"04/10/12 13:01:34","47.1944","68.8","215.04","346","60.0","8"
"04/10/12 13:06:34","47.2002","77.7","215.05","389","60.03","8"
"04/10/12 13:11:34","47.2062","78.0","214.72","388","60.03","8"
"04/10/12 13:16:35","47.2137","104.1","215.43","498","60.0","8"
"04/10/12 13:21:34","47.2209","87.6","215.53","426","60.0","8"
"04/10/12 13:26:34","47.2277","88.4","215.13","432","60.0","8"
"04/10/12 13:31:34","47.2369","136.5","217.83","632","60.0","9"
"04/10/12 13:36:33","47.2479","132.6","216.88","622","60.03","9"
"04/10/12 13:41:34","47.2559","103.2","216.43","494","60.03","9"
"04/10/12 13:46:35","47.2688","175.3","217.72","799","60.0","10"
"04/10/12 13:51:33","47.282","178.7","217.83","816","60.03","11"
"04/10/12 13:56:35","47.295","169.2","218.17","771","60.03","12"
"04/10/12 14:01:35","47.3033","95.5","215.95","465","60.03","11"
"04/10/12 14:06:34","47.3115","85.4","215.52","419","60.03","11"
"04/10/12 14:11:35","47.321","117.7","215.95","556","60.03","11"
"04/10/12 14:16:35","47.3294","96.5","216.14","466","60.0","11"
"04/10/12 14:21:34","47.3383","134.9","216.84","628","60.07","11"
"04/10/12 14:26:34","47.3471","109.8","216.28","519","60.0","11"
"04/10/12 14:31:34","47.3558","137.2","216.55","641","60.0","11"
"04/10/12 14:36:35","47.3651","117.6","216.34","553","60.03","11"
"04/10/12 14:41:35","47.374","120.7","216.84","567","60.0","11"
"04/10/12 14:46:33","47.3838","112.2","216.35","530","60.0","11"
"04/10/12 14:51:34","47.3939","147.7","216.67","688","60.03","11"
"04/10/12 14:56:35","47.4075","192.4","217.54","870","60.03","12"
"04/10/12 15:01:34","47.4213","183.1","217.1","837","60.03","13"
"04/10/12 15:06:35","47.4346","157.7","216.93","723","60.03","13"
"04/10/12 15:11:35","47.4472","159.7","216.95","738","60.03","13"
"04/10/12 15:16:34","47.4595","156.2","217.46","721","60.03","13"
"04/10/12 15:21:34","47.4715","153.9","217.46","708","60.03","13"
"04/10/12 15:26:34","47.4834","151.4","217.26","697","60.03","13"
"04/10/12 15:31:34","47.495","140.8","216.97","656","60.03","13"
"04/10/12 15:36:35","47.5059","123.5","216.84","581","60.03","13"
"04/10/12 15:41:34","47.5165","137.1","217.19","637","60.03","13"
"04/10/12 15:46:35","47.5271","138.0","216.69","641","60.03","12"
"04/10/12 15:51:35","47.5377","134.6","216.81","628","60.0","13"
"04/10/12 15:56:34","47.548","132.2","216.6","619","60.03","12"
"04/10/12 16:01:35","47.5581","124.3","216.56","584","60.03","12"
"04/10/12 16:06:33","47.5672","113.1","216.08","535","60.0","11"
"04/10/12 16:11:34","47.5763","122.1","216.55","574","60.07","11"
"04/10/12 16:16:35","47.5852","96.4","215.98","466","60.0","11"
"04/10/12 16:21:34","47.5936","110.7","216.12","528","60.0","11"
"04/10/12 16:26:34","47.6021","106.3","216.27","506","60.0","11"
"04/10/12 16:31:35","47.6102","101.8","215.77","492","60.03","11"
"04/10/12 16:36:34","47.6177","92.5","215.84","447","60.0","11"
"04/10/12 16:41:35","47.6245","91.2","215.73","441","60.0","11"
"04/10/12 16:46:34","47.6313","88.8","215.4","432","60.07","10"
"04/10/12 16:51:35","47.638","85.1","215.75","415","60.0","10"
"04/10/12 16:56:35","47.6444","79.6","215.38","395","60.0","10"
"04/10/12 17:01:34","47.6504","75.2","215.14","374","60.07","9"
"04/10/12 17:06:34","47.6561","69.8","215.15","353","60.03","9"
"04/10/12 17:11:34","47.6613","65.5","215.33","331","60.03","9"
"04/10/12 17:16:34","47.6662","74.0","215.05","417","60.03","9"
"04/10/12 17:21:33","47.6701","44.3","214.83","266","60.03","9"
"04/10/12 17:26:34","47.6742","44.3","215.29","107","60.07","9"
"04/10/12 17:31:35","47.6779","48.3","214.81","375","60.03","9"
"04/10/12 17:36:33","47.6813","46.2","213.33","330","60.03","9"
"04/10/12 17:41:34","47.6843","31.7","215.13","94","60.03","9"
"04/10/12 17:46:35","47.687","36.6","215.22","145","60.03","9"
"04/10/12 17:51:35","47.6893","27.9","214.13","232","60.07","9"
"04/10/12 17:56:34","47.6913","27.9","215.05","267","60.07","9"
"04/10/12 18:01:34","47.693","17.1","214.29","35","60.0","9"
"04/10/12 18:06:35","47.6944","12.7","214.28","5","60.07","8"
"04/10/12 18:11:34","47.6955","14.7","213.95","44","60.03","8"
"04/10/12 18:16:34","47.6964","11.9","213.8","19","60.07","8"
"04/10/12 18:21:35","47.697","10.6","214.32","9","60.0","8"
"04/10/12 18:26:35","47.6976","13.9","213.85","52","60.03","8"
"04/10/12 18:31:34","47.6979","0.0","214.07","0","60.0","8"
"04/11/12 06:46:35","47.698","0.0","214.02","82","60.03","3"
"04/11/12 06:51:35","47.6986","15.6","213.09","10","60.0","3"
"04/11/12 06:56:34","47.6995","16.4","211.8","21","60.03","3"
"04/11/12 07:01:34","47.7006","13.7","212.0","5","60.0","4"
"04/11/12 07:06:34","47.7018","15.8","213.07","212","60.07","4"
"04/11/12 07:11:34","47.7033","12.1","213.76","55","60.0","4"
"04/11/12 07:16:35","47.705","21.2","213.15","245","60.0","5"
"04/11/12 07:21:35","47.7069","25.6","213.36","151","60.03","5"
"04/11/12 07:26:36","47.7093","28.2","212.32","169","60.03","5"
"04/11/12 07:31:34","47.712","32.0","213.04","127","60.03","5"
"04/11/12 07:36:35","47.7151","44.4","213.44","315","60.03","6"
"04/11/12 07:41:35","47.7186","43.9","213.84","366","60.03","6"
"04/11/12 07:46:36","47.7225","64.2","214.42","356","60.03","6"
"04/11/12 07:51:34","47.7265","40.7","213.91","427","60.03","6"
"04/11/12 07:56:34","47.7308","52.7","214.22","164","60.0","6"
"04/11/12 08:01:35","47.7359","68.6","214.72","349","60.03","6"
"04/11/12 08:06:34","47.7415","80.4","214.55","397","60.03","7"
"04/11/12 08:11:34","47.7477","44.9","214.24","147","60.0","7"
"04/11/12 08:16:34","47.7533","96.1","214.96","468","60.03","7"
"04/11/12 08:21:35","47.7603","104.0","215.31","502","60.0","7"
"04/11/12 08:26:35","47.7685","107.8","215.83","515","60.03","8"
"04/11/12 08:31:35","47.7735","35.6","213.52","161","60.0","8"
"04/11/12 08:36:34","47.7767","36.8","213.5","375","60.03","8"
"04/11/12 08:41:35","47.7797","47.9","213.44","176","60.03","8"
"04/11/12 08:46:35","47.783","34.2","214.3","143","60.0","8"
"04/11/12 08:51:35","47.7856","25.2","213.7","312","60.0","8"
"04/11/12 08:56:35","47.7875","31.5","214.18","105","60.03","8"
"04/11/12 09:06:34","47.7926","33.2","214.51","288","60.03","8"
"04/11/12 09:11:34","47.7947","24.2","213.78","178","60.03","8"
"04/11/12 09:16:34","47.7966","31.3","213.86","91","60.03","8"
"04/11/12 09:21:35","47.799","34.7","213.99","296","60.0","8"
"04/11/12 09:26:35","47.8022","42.6","214.26","407","60.03","8"
"04/11/12 09:31:35","47.8061","39.0","214.95","337","60.03","8"
"04/11/12 09:36:35","47.8093","48.0","215.11","260","60.03","8"
"04/11/12 09:41:35","47.8137","60.1","214.34","264","60.03","8"
"04/11/12 09:46:35","47.818","39.9","213.82","96","60.03","9"
"04/11/12 09:51:35","47.8216","36.3","213.87","331","60.07","9"
"04/11/12 09:56:34","47.825","45.1","214.57","227","60.03","9"
"04/11/12 10:01:34","47.829","63.2","214.48","236","60.0","9"
"04/11/12 10:06:35","47.833","41.3","213.84","324","60.03","9"
"04/11/12 10:11:35","47.837","47.6","214.23","109","60.03","9"
"04/11/12 10:16:34","47.8416","70.8","214.91","357","60.03","9"
"04/11/12 10:21:34","47.846","50.0","214.16","267","60.03","9"
"04/11/12 10:26:35","47.8509","67.4","214.59","344","60.03","9"
"04/11/12 10:31:34","47.8557","42.9","214.65","405","60.03","9"
"04/11/12 10:36:34","47.8599","63.7","214.65","412","60.03","9"
"04/11/12 10:41:35","47.8647","61.3","214.97","311","60.0","9"
"04/11/12 10:46:36","47.8692","69.6","214.46","385","60.03","10"
"04/11/12 10:51:34","47.8748","97.8","215.97","472","60.0","10"
"04/11/12 10:56:35","47.8807","70.5","215.13","356","60.03","10"
"04/11/12 11:01:35","47.8856","44.2","215.8","99","60.03","10"
"04/11/12 11:06:34","47.8913","72.1","215.25","362","60.03","11"
"04/11/12 11:11:35","47.8983","93.9","216.75","457","60.03","11"
"04/11/12 11:16:35","47.9043","70.6","215.48","355","60.03","11"
"04/11/12 11:21:35","47.9103","86.6","215.94","419","60.03","11"
"04/11/12 11:26:35","47.9179","88.3","216.03","430","60.07","11"
"04/11/12 11:31:35","47.9251","125.5","216.64","589","60.03","12"
"04/11/12 11:36:35","47.9327","69.3","215.47","352","60.0","11"
"04/11/12 11:41:34","47.9378","67.6","215.34","342","60.07","11"
"04/11/12 11:46:35","47.9444","92.3","216.48","449","60.0","11"
"04/11/12 11:51:35","47.9513","86.6","216.9","422","60.03","11"
"04/11/12 11:56:36","47.9579","73.3","215.24","366","60.03","11"
"04/11/12 12:01:36","47.964","95.8","215.32","467","60.07","11"
"04/11/12 12:06:34","47.9705","78.5","215.57","387","60.07","11"
"04/11/12 12:11:35","47.9762","81.3","215.74","397","60.03","11"
"04/11/12 12:16:35","47.9835","96.1","215.82","461","60.0","11"
"04/11/12 12:21:36","47.9913","84.3","216.07","413","60.03","11"
"04/11/12 12:26:34","47.998","88.3","215.12","436","60.03","11"
"04/11/12 12:31:34","48.0034","70.3","215.13","353","60.0","11"
"04/11/12 12:36:35","48.0108","71.7","214.88","356","60.03","12"
"04/11/12 12:41:34","48.0188","96.2","215.22","467","60.03","12"
"04/11/12 12:46:35","48.0247","79.8","215.28","397","60.03","12"
"04/11/12 12:51:36","48.0318","91.1","215.55","444","60.0","12"
"04/11/12 12:56:36","48.0383","81.0","215.06","399","60.07","12"
"04/11/12 13:01:35","48.0442","75.8","214.66","378","60.03","12"
"04/11/12 13:06:34","48.0501","83.7","216.19","409","60.03","12"
"04/11/12 13:11:35","48.0561","72.1","214.97","360","60.03","12"
"04/11/12 13:16:35","48.0615","68.2","215.17","344","60.0","11"
"04/11/12 13:21:34","48.0673","74.8","214.98","375","60.03","11"
"04/11/12 13:26:35","48.0729","67.4","214.95","341","60.03","11"
"04/11/12 13:31:36","48.0792","84.3","216.4","414","60.03","11"
"04/11/12 13:36:35","48.0864","122.8","216.53","576","60.03","11"
"04/11/12 13:41:35","48.0937","79.5","215.79","395","60.03","12"
"04/11/12 13:46:34","48.0997","74.1","215.53","371","60.03","12"
"04/11/12 13:51:35","48.1061","80.5","216.21","392","60.0","12"
"04/11/12 13:56:35","48.1119","71.1","215.24","356","60.03","12"
"04/11/12 14:01:35","48.1173","67.2","214.7","338","60.03","11"
"04/11/12 14:06:35","48.1229","75.1","215.42","375","60.03","11"
"04/11/12 14:16:35","48.1328","64.0","214.45","330","60.03","11"
"04/11/12 14:21:35","48.138","67.5","215.04","343","60.03","11"
"04/11/12 14:26:34","48.1431","67.7","216.38","340","60.0","11"
"04/11/12 14:31:35","48.1484","67.8","215.57","345","60.03","11"
"04/11/12 14:36:34","48.1538","65.9","215.57","330","60.0","11"
"04/11/12 14:41:35","48.1585","59.5","215.84","406","60.03","11"
"04/11/12 14:46:35","48.1635","68.7","215.15","344","60.0","11"
"04/11/12 14:51:34","48.1688","67.5","215.43","340","60.03","11"
"04/11/12 14:56:36","48.1739","64.0","214.77","327","60.0","11"
"04/11/12 15:01:34","48.1789","66.7","214.91","341","60.03","11"
"04/11/12 15:06:35","48.1844","67.8","215.74","343","60.0","11"
"04/11/12 15:11:34","48.1902","76.4","215.56","382","60.03","11"
"04/11/12 15:16:35","48.1961","76.5","215.61","380","60.03","11"
"04/11/12 15:21:34","48.2019","81.0","215.89","401","60.03","11"
"04/11/12 15:26:34","48.2079","71.3","214.87","359","60.07","11"
"04/11/12 15:31:35","48.2147","80.6","215.71","398","60.0","11"
"04/11/12 15:36:35","48.2202","57.6","215.2","130","60.03","11"
"04/11/12 15:41:34","48.2267","73.7","215.69","369","60.0","11"
"04/11/12 15:46:35","48.2357","173.2","217.2","796","60.03","13"
"04/11/12 15:51:34","48.2421","73.8","214.55","151","60.0","12"
"04/11/12 15:56:35","48.2464","47.3","214.93","435","60.03","12"
"04/11/12 16:01:34","48.2548","141.8","216.85","659","60.03","12"
"04/11/12 16:06:35","48.2625","118.7","215.92","560","60.0","12"
"04/11/12 16:11:35","48.2719","117.8","215.95","555","60.03","13"
"04/11/12 16:16:36","48.2804","112.0","215.7","535","60.03","13"
"04/11/12 16:21:34","48.2888","107.4","215.82","516","60.03","13"
"04/11/12 16:26:34","48.297","104.2","216.23","497","60.0","13"
"04/11/12 16:31:34","48.3049","99.6","214.74","482","60.03","13"
"04/11/12 16:36:36","48.3126","95.9","215.07","464","60.03","13"
"04/11/12 16:41:35","48.3199","90.8","214.57","446","60.03","14"
"04/11/12 16:46:36","48.3268","87.0","215.08","427","60.03","14"
"04/11/12 16:51:35","48.3334","83.0","214.23","410","60.03","13"
"04/11/12 16:56:35","48.3397","77.8","214.64","388","60.03","14"
"04/11/12 17:01:35","48.3456","73.3","214.87","370","60.11","13"
"04/11/12 17:06:35","48.3511","68.9","214.53","348","60.03","13"
"04/11/12 17:11:35","48.3563","64.1","214.34","329","60.03","13"
"04/11/12 17:16:34","48.3611","68.4","214.07","357","60.03","13"
"04/11/12 17:21:35","48.3655","45.9","214.09","329","60.03","13"
"04/11/12 17:26:35","48.3696","47.0","214.58","138","60.03","13"
"04/11/12 17:31:35","48.3732","52.0","214.06","167","60.03","13"
"04/11/12 17:36:36","48.3766","47.1","213.8","158","60.03","13"
"04/11/12 17:41:34","48.3796","31.5","213.39","166","60.0","13"
"04/11/12 17:46:36","48.3823","28.4","213.8","89","60.03","12"
"04/11/12 17:51:35","48.3845","17.5","214.16","54","60.0","12"
"04/11/12 17:56:35","48.3866","13.0","214.52","297","60.03","11"
"04/11/12 18:01:34","48.3883","13.3","214.25","100","60.03","11"
"04/11/12 18:06:34","48.3897","18.9","213.51","73","60.03","11"
"04/11/12 18:11:36","48.3909","9.1","213.26","246","60.03","11"
"04/11/12 18:16:35","48.3918","11.1","214.1","32","60.0","11"
"04/11/12 18:21:34","48.3925","15.2","213.81","10","60.03","11"
"04/11/12 18:26:35","48.3931","0.0","213.76","0","60.03","10"
"04/11/12 18:31:35","48.3935","0.0","213.21","0","60.0","10"
"04/12/12 06:51:37","48.3937","12.9","214.13","132","60.03","0"
"04/12/12 06:56:34","48.3944","11.6","214.25","19","60.03","1"
"04/12/12 07:01:34","48.3953","12.9","213.52","7","60.03","1"
"04/12/12 07:06:36","48.3965","16.7","213.41","10","60.03","2"
"04/12/12 07:11:35","48.398","19.0","214.28","13","60.0","2"
"04/12/12 07:16:36","48.3998","15.4","213.55","46","60.03","3"
"04/12/12 07:21:34","48.4019","25.1","213.89","245","60.0","3"
"04/12/12 07:26:35","48.4043","29.4","214.23","239","60.03","3"
"04/12/12 07:31:35","48.4072","35.0","214.3","347","60.0","4"
"04/12/12 07:36:35","48.4105","40.5","214.28","270","60.03","4"
"04/12/12 07:41:35","48.4142","45.6","214.02","128","60.0","5"
"04/12/12 07:46:35","48.418","49.5","212.99","176","60.03","5"
"04/12/12 07:51:35","48.4224","60.2","214.66","164","60.03","5"
"04/12/12 07:56:36","48.4263","43.5","215.22","92","60.0","6"
"04/12/12 08:01:35","48.4302","40.4","215.85","373","60.03","6"
"04/12/12 08:06:36","48.4355","71.6","214.84","358","60.03","6"
"04/12/12 08:11:36","48.4413","76.1","214.98","378","60.03","6"
"04/12/12 08:16:34","48.4473","80.8","214.99","400","60.03","6"
"04/12/12 08:21:36","48.4538","85.1","215.91","417","60.0","7"
"04/12/12 08:26:36","48.4606","89.8","215.78","440","60.03","7"
"04/12/12 08:31:35","48.4678","94.4","216.94","457","60.0","8"
"04/12/12 08:36:35","48.4753","98.5","216.6","471","60.03","8"
"04/12/12 08:41:35","48.4831","102.9","216.69","489","60.03","9"
"04/12/12 08:46:35","48.4913","106.4","216.79","508","60.0","9"
"04/12/12 08:51:36","48.4998","111.0","217.04","528","60.03","9"